Starlink 31555

operational
NORAD ID: 59351 Int'l Des: 2024-060 Owner: SPXS Country: US Constellation: starlink
LEOCIRCULAR

关于 Starlink 31555

正在加载描述...

实时位置

正在加载3D地球...

即将过境

高度历史

Altitude vs Time

uPlot chart will show altitude changes over time

两行轨道根数

1 59351U 24060D 25259.44800393 -.00000976 00000-0 -25964-4 0 9993
2 59351 43.0068 163.9863 0001075 305.6730 54.4022 15.27577047 83462
Epoch: Sep 16, 2025 • Age: 11 hours

当前状态

高度 495.8 km
速度 7.62 km/s
星下点 -43.14°S, 112.86°E
发射日期 Mar 31, 2024
运行时间 1.4 years
类型 internet

技术详情

分类 Payload
质量 730.00 kg
干质量 700.00 kg
总质量 730.00 kg
长度 0.30 m
直径 4.10 m
跨度 29.00 m
形状 Box + pan
制造商 SPXS
平台类型 Starlink V2M
阶段状态 In Orbit
所有者/国家 SPXS/US

大型星座

Loading constellations...